Tracking 19153 objects as of 26-Apr-2018
HD Live streaming from Space Station
objects crossing your sky now

COSMOS 921

Track COSMOS 921 now!
10-day predictions
COSMOS 921 is classified as:


NORAD ID: 10095
Int'l Code: 1977-055A
Perigee: 573.3 km
Apogee: 625.6 km
Inclination: 75.8 °
Period: 96.5 minutes
Semi major axis: 6970 km
RCS: 2.5859 m2 (large)
Launch date: June 24, 1977
Source: Commonwealth of Independent States (former USSR) (CIS)
Launch site: PLESETSK MISSILE AND SPACE COMPLEX (PKMTR)
aabbcc
Your satellite tracking list
Your tracking list is empty




NASA's NSSDC Master Catalog

Two Line Element Set (TLE):
1 10095U 77055A   18116.11606773  .00000087  00000-0  10527-4 0  9991
2 10095  75.8319 108.9456 0037498  51.4736 308.9807 14.91795682210752
Source of the keplerian elements: AFSPC